Location: Putah Creek Observatory
(38.7021°N, 122.3865°W)
Time: 15:54:23
(UTC-07:00)

ERS-2 - Pass Details

Date: 27 May 2018
Orbit: 497 x 503 km, 98.5° (Epoch: 20 June)

Event Time Altitude Azimuth Distance (km) Brightness Sun altitude
Exits shadow 20:59:18 - 163° (SSE) 2,386 5.1 -6.5°
Reaches altitude 10° 21:00:53 10° 163° (SSE) 1,708 4.4 -6.8°
Maximum altitude 21:04:34 82° 76° (ENE) 514 2.1 -7.4°
Drops below altitude 10° 21:08:16 10° 349° (N) 1,720 5.6 -8.0°
Sets 21:10:21 0° 348° (NNW) 2,609 6.6 -8.3°
